Location: Bennemühlen
(52.5740°N, 9.7135°E)
Time: 19:24:40
(UTC+00:00)

ISS - Pass Details

Date: 23 January 2026
Orbit: 413 x 429 km, 51.6° (Epoch: 11 February)

Event Time Altitude Azimuth Distance (km) Brightness Sun altitude
Rises 19:16:20 0° 281° (W) 2,372 1.2 -30.8°
Reaches altitude 10° 19:18:40 10° 268° (W) 1,508 -0.1 -31.2°
Enters shadow 19:19:02 12° 264° (W) 1,383 -0.4 -31.2°
